Time,TemperatureF,DewpointF,PressureIn,WindDirection,WindDirectionDegrees,WindSpeedMPH,WindSpeedGustMPH,Humidity,HourlyPrecipIn,Conditions,Clouds,dailyrainin,SolarRadiationWatts/m^2,SoftwareType,DateUTC
2013-01-09 00:02:00,31.0,18.0,-100.00,SSW,207,6.0,11.0,57,0.00,,,0.00,0.000000,,2013-01-09 07:02:00,
2013-01-09 00:12:00,31.0,18.0,-100.00,SSW,207,6.0,11.0,57,0.00,,,0.00,0.000000,,2013-01-09 07:12:00,
2013-01-09 00:21:00,32.0,19.0,-100.00,SSW,193,9.0,16.0,57,0.00,,,0.00,0.000000,,2013-01-09 07:21:00,
2013-01-09 00:42:00,32.0,19.0,-100.00,SSW,193,9.0,16.0,57,0.00,,,0.00,0.000000,,2013-01-09 07:42:00,
2013-01-09 00:52:00,32.0,19.0,-100.00,SSW,193,9.0,16.0,57,0.00,,,0.00,0.000000,,2013-01-09 07:52:00,
2013-01-09 01:02:00,32.0,19.0,-100.00,SSW,193,9.0,16.0,57,0.00,,,0.00,0.000000,,2013-01-09 08:02:00,
2013-01-09 01:12:00,32.0,19.0,-100.00,SSW,193,9.0,16.0,57,0.00,,,0.00,0.000000,,2013-01-09 08:12:00,
2013-01-09 01:21:00,31.0,19.0,-100.00,SSW,196,9.0,17.0,60,0.00,,,0.00,0.000000,,2013-01-09 08:21:00,
2013-01-09 01:43:00,31.0,19.0,-100.00,SSW,196,9.0,17.0,60,0.00,,,0.00,0.000000,,2013-01-09 08:43:00,
2013-01-09 01:53:00,31.0,19.0,-100.00,SSW,196,9.0,17.0,60,0.00,,,0.00,0.000000,,2013-01-09 08:53:00,
2013-01-09 02:02:00,31.0,19.0,-100.00,SSW,196,9.0,17.0,60,0.00,,,0.00,0.000000,,2013-01-09 09:02:00,
2013-01-09 02:12:00,31.0,19.0,-100.00,SSW,196,9.0,17.0,60,0.00,,,0.00,0.000000,,2013-01-09 09:12:00,
2013-01-09 02:21:00,30.0,20.0,-100.00,SSW,209,11.0,18.0,66,0.00,,,0.00,0.000000,,2013-01-09 09:21:00,
2013-01-09 02:42:00,30.0,20.0,-100.00,SSW,209,11.0,18.0,66,0.00,,,0.00,0.000000,,2013-01-09 09:42:00,
2013-01-09 02:53:00,30.0,20.0,-100.00,SSW,209,11.0,18.0,66,0.00,,,0.00,0.000000,,2013-01-09 09:53:00,
2013-01-09 03:02:00,30.0,20.0,-100.00,SSW,209,11.0,18.0,66,0.00,,,0.00,0.000000,,2013-01-09 10:02:00,
2013-01-09 03:12:00,30.0,20.0,-100.00,SSW,209,11.0,18.0,66,0.00,,,0.00,0.000000,,2013-01-09 10:12:00,
2013-01-09 03:21:00,31.0,20.0,-100.00,SSW,203,13.0,22.0,62,0.00,,,0.00,0.000000,,2013-01-09 10:21:00,
2013-01-09 03:42:00,31.0,20.0,-100.00,SSW,203,13.0,22.0,62,0.00,,,0.00,0.000000,,2013-01-09 10:42:00,
2013-01-09 03:52:00,31.0,20.0,-100.00,SSW,203,13.0,22.0,62,0.00,,,0.00,0.000000,,2013-01-09 10:52:00,
2013-01-09 04:02:00,31.0,20.0,-100.00,SSW,203,13.0,22.0,62,0.00,,,0.00,0.000000,,2013-01-09 11:02:00,
2013-01-09 04:12:00,31.0,20.0,-100.00,SSW,203,13.0,22.0,62,0.00,,,0.00,0.000000,,2013-01-09 11:12:00,
2013-01-09 04:21:00,31.0,20.0,-100.00,SSW,197,9.0,19.0,62,0.00,,,0.00,0.000000,,2013-01-09 11:21:00,
2013-01-09 04:43:00,31.0,20.0,-100.00,SSW,197,9.0,19.0,62,0.00,,,0.00,0.000000,,2013-01-09 11:43:00,
2013-01-09 04:53:00,31.0,20.0,-100.00,SSW,197,9.0,19.0,62,0.00,,,0.00,0.000000,,2013-01-09 11:53:00,
2013-01-09 05:03:00,31.0,20.0,-100.00,SSW,197,9.0,19.0,62,0.00,,,0.00,0.000000,,2013-01-09 12:03:00,
2013-01-09 05:12:00,31.0,20.0,-100.00,SSW,197,9.0,19.0,62,0.00,,,0.00,0.000000,,2013-01-09 12:12:00,
2013-01-09 05:21:00,32.0,19.0,-100.00,SSW,205,11.0,17.0,59,0.00,,,0.00,0.000000,,2013-01-09 12:21:00,
2013-01-09 05:43:00,32.0,19.0,-100.00,SSW,205,11.0,17.0,59,0.00,,,0.00,0.000000,,2013-01-09 12:43:00,
2013-01-09 05:53:00,32.0,19.0,-100.00,SSW,205,11.0,17.0,59,0.00,,,0.00,0.000000,,2013-01-09 12:53:00,
2013-01-09 06:03:00,32.0,19.0,-100.00,SSW,205,11.0,17.0,59,0.00,,,0.00,0.000000,,2013-01-09 13:03:00,
2013-01-09 06:12:00,32.0,19.0,-100.00,SSW,205,11.0,17.0,59,0.00,,,0.00,0.000000,,2013-01-09 13:12:00,
2013-01-09 06:21:00,32.0,19.0,-100.00,SSW,207,10.0,19.0,57,0.00,,,0.00,0.000000,,2013-01-09 13:21:00,
2013-01-09 06:43:00,32.0,19.0,-100.00,SSW,207,10.0,19.0,57,0.00,,,0.00,0.000000,,2013-01-09 13:43:00,
2013-01-09 06:53:00,32.0,19.0,-100.00,SSW,207,10.0,19.0,57,0.00,,,0.00,0.000000,,2013-01-09 13:53:00,
2013-01-09 07:03:00,32.0,19.0,-100.00,SSW,207,10.0,19.0,57,0.00,,,0.00,0.000000,,2013-01-09 14:03:00,
2013-01-09 07:12:00,32.0,19.0,-100.00,SSW,207,10.0,19.0,57,0.00,,,0.00,0.000000,,2013-01-09 14:12:00,
2013-01-09 07:21:00,33.0,19.0,-100.00,SW,214,9.0,17.0,55,0.00,,,0.00,0.000000,,2013-01-09 14:21:00,
2013-01-09 07:43:00,33.0,19.0,-100.00,SW,214,9.0,17.0,55,0.00,,,0.00,0.000000,,2013-01-09 14:43:00,
2013-01-09 07:53:00,33.0,19.0,-100.00,SW,214,9.0,17.0,55,0.00,,,0.00,0.000000,,2013-01-09 14:53:00,
2013-01-09 08:03:00,33.0,19.0,-100.00,SW,214,9.0,17.0,55,0.00,,,0.00,0.000000,,2013-01-09 15:03:00,
2013-01-09 08:12:00,33.0,19.0,-100.00,SW,214,9.0,17.0,55,0.00,,,0.00,0.000000,,2013-01-09 15:12:00,
2013-01-09 08:21:00,33.0,17.0,-100.00,SW,222,10.0,18.0,52,0.00,,,0.00,17.000000,,2013-01-09 15:21:00,
2013-01-09 08:43:00,33.0,17.0,-100.00,SW,222,10.0,18.0,52,0.00,,,0.00,17.000000,,2013-01-09 15:43:00,
2013-01-09 08:53:00,33.0,17.0,-100.00,SW,222,10.0,18.0,52,0.00,,,0.00,17.000000,,2013-01-09 15:53:00,
2013-01-09 09:03:00,33.0,17.0,-100.00,SW,222,10.0,18.0,52,0.00,,,0.00,17.000000,,2013-01-09 16:03:00,
2013-01-09 09:12:00,33.0,17.0,-100.00,SW,222,10.0,18.0,52,0.00,,,0.00,17.000000,,2013-01-09 16:12:00,
2013-01-09 09:21:00,39.0,21.0,-100.00,SW,222,8.0,16.0,48,0.00,,,0.00,107.000000,,2013-01-09 16:21:00,
2013-01-09 09:43:00,39.0,21.0,-100.00,SW,222,8.0,16.0,48,0.00,,,0.00,107.000000,,2013-01-09 16:43:00,
2013-01-09 09:53:00,39.0,21.0,-100.00,SW,222,8.0,16.0,48,0.00,,,0.00,107.000000,,2013-01-09 16:53:00,
2013-01-09 10:03:00,39.0,21.0,-100.00,SW,222,8.0,16.0,48,0.00,,,0.00,107.000000,,2013-01-09 17:03:00,
2013-01-09 10:12:00,39.0,21.0,-100.00,SW,222,8.0,16.0,48,0.00,,,0.00,107.000000,,2013-01-09 17:12:00,
2013-01-09 10:21:00,43.0,22.0,-100.00,SSW,199,7.0,11.0,42,0.00,,,0.00,200.000000,,2013-01-09 17:21:00,
2013-01-09 10:43:00,43.0,22.0,-100.00,SSW,199,7.0,11.0,42,0.00,,,0.00,200.000000,,2013-01-09 17:43:00,
2013-01-09 10:53:00,43.0,22.0,-100.00,SSW,199,7.0,11.0,42,0.00,,,0.00,200.000000,,2013-01-09 17:53:00,
2013-01-09 11:03:00,43.0,22.0,-100.00,SSW,199,7.0,11.0,42,0.00,,,0.00,200.000000,,2013-01-09 18:03:00,
2013-01-09 11:12:00,43.0,22.0,-100.00,SSW,199,7.0,11.0,42,0.00,,,0.00,200.000000,,2013-01-09 18:12:00,
2013-01-09 11:21:00,45.0,22.0,-100.00,South,190,6.0,11.0,40,0.00,,,0.00,283.000000,,2013-01-09 18:21:00,
2013-01-09 11:43:00,45.0,22.0,-100.00,South,190,6.0,11.0,40,0.00,,,0.00,283.000000,,2013-01-09 18:43:00,
2013-01-09 11:53:00,45.0,22.0,-100.00,South,190,6.0,11.0,40,0.00,,,0.00,283.000000,,2013-01-09 18:53:00,
2013-01-09 12:03:00,45.0,22.0,-100.00,South,190,6.0,11.0,40,0.00,,,0.00,283.000000,,2013-01-09 19:03:00,
2013-01-09 12:12:00,45.0,22.0,-100.00,South,190,6.0,11.0,40,0.00,,,0.00,283.000000,,2013-01-09 19:12:00,
2013-01-09 12:21:00,48.0,23.0,-100.00,SSW,195,8.0,14.0,37,0.00,,,0.00,327.000000,,2013-01-09 19:21:00,
2013-01-09 12:53:00,48.0,23.0,-100.00,SSW,195,8.0,14.0,37,0.00,,,0.00,327.000000,,2013-01-09 19:53:00,
2013-01-09 13:03:00,48.0,23.0,-100.00,SSW,195,8.0,14.0,37,0.00,,,0.00,327.000000,,2013-01-09 20:03:00,
2013-01-09 13:12:00,48.0,23.0,-100.00,SSW,195,8.0,14.0,37,0.00,,,0.00,327.000000,,2013-01-09 20:12:00,
2013-01-09 13:21:00,52.0,24.0,-100.00,SSW,193,6.0,13.0,33,0.00,,,0.00,297.000000,,2013-01-09 20:21:00,
2013-01-09 13:43:00,52.0,24.0,-100.00,SSW,193,6.0,13.0,33,0.00,,,0.00,297.000000,,2013-01-09 20:43:00,
2013-01-09 13:53:00,52.0,24.0,-100.00,SSW,193,6.0,13.0,33,0.00,,,0.00,297.000000,,2013-01-09 20:53:00,
2013-01-09 14:03:00,52.0,24.0,-100.00,SSW,193,6.0,13.0,33,0.00,,,0.00,297.000000,,2013-01-09 21:03:00,
2013-01-09 14:13:00,52.0,24.0,-100.00,SSW,193,6.0,13.0,33,0.00,,,0.00,297.000000,,2013-01-09 21:13:00,
2013-01-09 14:21:00,49.0,26.0,-100.00,SSE,164,6.0,10.0,40,0.00,,,0.00,216.000000,,2013-01-09 21:21:00,
2013-01-09 14:43:00,49.0,26.0,-100.00,SSE,164,6.0,10.0,40,0.00,,,0.00,216.000000,,2013-01-09 21:43:00,
2013-01-09 14:53:00,49.0,26.0,-100.00,SSE,164,6.0,10.0,40,0.00,,,0.00,216.000000,,2013-01-09 21:53:00,
2013-01-09 15:03:00,49.0,26.0,-100.00,SSE,164,6.0,10.0,40,0.00,,,0.00,216.000000,,2013-01-09 22:03:00,
2013-01-09 15:12:00,49.0,26.0,-100.00,SSE,164,6.0,10.0,40,0.00,,,0.00,216.000000,,2013-01-09 22:12:00,
2013-01-09 15:21:00,47.0,26.0,-100.00,SSE,154,3.0,7.0,43,0.00,,,0.00,92.000000,,2013-01-09 22:21:00,
2013-01-09 15:43:00,47.0,26.0,-100.00,SSE,154,3.0,7.0,43,0.00,,,0.00,92.000000,,2013-01-09 22:43:00,
2013-01-09 15:52:00,47.0,26.0,-100.00,SSE,154,3.0,7.0,43,0.00,,,0.00,92.000000,,2013-01-09 22:52:00,
2013-01-09 16:02:00,47.0,26.0,-100.00,SSE,154,3.0,7.0,43,0.00,,,0.00,92.000000,,2013-01-09 23:02:00,
2013-01-09 16:13:00,47.0,26.0,-100.00,SSE,154,3.0,7.0,43,0.00,,,0.00,92.000000,,2013-01-09 23:13:00,
2013-01-09 16:21:00,44.0,25.0,-100.00,SSE,154,8.0,12.0,47,0.00,,,0.00,32.000000,,2013-01-09 23:21:00,
2013-01-09 16:43:00,44.0,25.0,-100.00,SSE,154,8.0,12.0,47,0.00,,,0.00,32.000000,,2013-01-09 23:43:00,
2013-01-09 16:53:00,44.0,25.0,-100.00,SSE,154,8.0,12.0,47,0.00,,,0.00,32.000000,,2013-01-09 23:53:00,
2013-01-09 17:03:00,44.0,25.0,-100.00,SSE,154,8.0,12.0,47,0.00,,,0.00,32.000000,,2013-01-10 00:03:00,
2013-01-09 17:12:00,44.0,25.0,-100.00,SSE,154,8.0,12.0,47,0.00,,,0.00,32.000000,,2013-01-10 00:12:00,
2013-01-09 17:21:00,44.0,25.0,-100.00,South,170,6.0,9.0,46,0.00,,,0.00,2.000000,,2013-01-10 00:21:00,
2013-01-09 17:43:00,44.0,25.0,-100.00,South,170,6.0,9.0,46,0.00,,,0.00,2.000000,,2013-01-10 00:43:00,
2013-01-09 17:53:00,44.0,25.0,-100.00,South,170,6.0,9.0,46,0.00,,,0.00,2.000000,,2013-01-10 00:53:00,
2013-01-09 18:02:00,44.0,25.0,-100.00,South,170,6.0,9.0,46,0.00,,,0.00,2.000000,,2013-01-10 01:02:00,
2013-01-09 18:12:00,44.0,25.0,-100.00,South,170,6.0,9.0,46,0.00,,,0.00,2.000000,,2013-01-10 01:12:00,
2013-01-09 18:21:00,45.0,27.0,-100.00,SE,141,7.0,11.0,50,0.00,,,0.00,0.000000,,2013-01-10 01:21:00,
2013-01-09 18:43:00,45.0,27.0,-100.00,SE,141,7.0,11.0,50,0.00,,,0.00,0.000000,,2013-01-10 01:43:00,
2013-01-09 18:53:00,45.0,27.0,-100.00,SE,141,7.0,11.0,50,0.00,,,0.00,0.000000,,2013-01-10 01:53:00,
2013-01-09 19:03:00,45.0,27.0,-100.00,SE,141,7.0,11.0,50,0.00,,,0.00,0.000000,,2013-01-10 02:03:00,
2013-01-09 19:12:00,45.0,27.0,-100.00,SE,141,7.0,11.0,50,0.00,,,0.00,0.000000,,2013-01-10 02:12:00,
2013-01-09 19:21:00,41.0,27.0,-100.00,SSW,201,5.0,11.0,57,0.00,,,0.00,0.000000,,2013-01-10 02:21:00,
2013-01-09 20:03:00,41.0,27.0,-100.00,SSW,201,5.0,11.0,57,0.00,,,0.00,0.000000,,2013-01-10 03:03:00,
2013-01-09 20:12:00,41.0,27.0,-100.00,SSW,201,5.0,11.0,57,0.00,,,0.00,0.000000,,2013-01-10 03:12:00,
2013-01-09 20:21:00,43.0,27.0,-100.00,WSW,240,7.0,14.0,53,0.00,,,0.00,0.000000,,2013-01-10 03:21:00,
2013-01-09 20:43:00,43.0,27.0,-100.00,WSW,240,7.0,14.0,53,0.00,,,0.00,0.000000,,2013-01-10 03:43:00,
2013-01-09 20:53:00,43.0,27.0,-100.00,WSW,240,7.0,14.0,53,0.00,,,0.00,0.000000,,2013-01-10 03:53:00,
2013-01-09 21:02:00,43.0,27.0,-100.00,WSW,240,7.0,14.0,53,0.00,,,0.00,0.000000,,2013-01-10 04:02:00,
2013-01-09 21:12:00,43.0,27.0,-100.00,WSW,240,7.0,14.0,53,0.00,,,0.00,0.000000,,2013-01-10 04:12:00,
2013-01-09 21:21:00,43.0,29.0,-100.00,SW,226,5.0,13.0,57,0.00,,,0.00,0.000000,,2013-01-10 04:21:00,
2013-01-09 21:43:00,43.0,29.0,-100.00,SW,226,5.0,13.0,57,0.00,,,0.00,0.000000,,2013-01-10 04:43:00,
2013-01-09 21:52:00,43.0,29.0,-100.00,SW,226,5.0,13.0,57,0.00,,,0.00,0.000000,,2013-01-10 04:52:00,
2013-01-09 22:03:00,43.0,29.0,-100.00,SW,226,5.0,13.0,57,0.00,,,0.00,0.000000,,2013-01-10 05:03:00,
2013-01-09 22:12:00,43.0,29.0,-100.00,SW,226,5.0,13.0,57,0.00,,,0.00,0.000000,,2013-01-10 05:12:00,
2013-01-09 22:21:00,41.0,26.0,-100.00,SW,229,5.0,9.0,55,0.00,,,0.00,0.000000,,2013-01-10 05:21:00,
2013-01-09 22:43:00,41.0,26.0,-100.00,SW,229,5.0,9.0,55,0.00,,,0.00,0.000000,,2013-01-10 05:43:00,
2013-01-09 22:53:00,41.0,26.0,-100.00,SW,229,5.0,9.0,55,0.00,,,0.00,0.000000,,2013-01-10 05:53:00,
2013-01-09 23:02:00,41.0,26.0,-100.00,SW,229,5.0,9.0,55,0.00,,,0.00,0.000000,,2013-01-10 06:02:00,
2013-01-09 23:12:00,41.0,26.0,-100.00,SW,229,5.0,9.0,55,0.00,,,0.00,0.000000,,2013-01-10 06:12:00,
2013-01-09 23:21:00,43.0,28.0,-100.00,SSW,208,7.0,10.0,54,0.00,,,0.00,0.000000,,2013-01-10 06:21:00,
2013-01-09 23:42:00,43.0,28.0,-100.00,SSW,208,7.0,10.0,54,0.00,,,0.00,0.000000,,2013-01-10 06:42:00,
2013-01-09 23:52:00,43.0,28.0,-100.00,SSW,208,7.0,10.0,54,0.00,,,0.00,0.000000,,2013-01-10 06:52:00,